FLOCK 3K-9 (43906 NORAD) Tracking and Keplerian Element Data

This shows tracking and keplerian element data for the satellite.

Feedback or suggestion? Click here.




ElementValue
Catalog43906
NameFLOCK 3K-9
Epoch Orbit392
Epoch Day21.8235862
Epoch Year2019
RAAN291.035
Inclination97.2998
Eccentricity0.0023102
Argument of Perigee149.8107
Mean Anonmoly210.4467
Mean Motion15.23858452
Decay Rate2.712E-05
L11 43906U 18111AG 19021.82358620 .00002712 00000-0 11457-3 0 9994
L22 43906 97.2998 291.0350 0023102 149.8107 210.4467 15.23858452 3927

Live tracking and technical data element details for FLOCK 3K-9 (NORAD 43906). FLOCK 3K-9 can be tracked NOW for your location showing map with azimuth and elevation plus other details from your city location.

Track the satellite on the map from your city or location and see movement details for azimuth, elevation, latitude, longitude, range, height, and movement on the map or in text.







IsCatalogInMostPopularTable: catalog: 43906, numindb: 23
Update: records affected: 1



GetName: 43906 FLOCK 3K-9

Hit Count: updated at: Wed, 23 Jan 2019 02:40:16 GMT